Hamilton Island, Australia

3:30 PM AEST on March 28, 2017 (GMT +1000)
Hamilton Island

Weather History for YBHM - December, 2013

Change the Weather History Date:

Monday, December 16, 2013

  Actual Average Record
Temperature  
Mean Temperature 80 °F -  
Max Temperature 83 °F - - ()
Min Temperature 77 °F - - ()
Cooling Degree Days 15    
Growing Degree Days 30 (Base 50)    
Moisture  
Dew Point 69 °F    
Average Humidity 68    
Maximum Humidity 78    
Minimum Humidity 52    
Precipitation  
Precipitation 0.00 in - - ()
Sea Level Pressure  
Sea Level Pressure 29.92 in    
Wind  
Wind Speed 20 mph ()    
Max Wind Speed 28 mph    
Max Gust Speed -    
T = Trace of Precipitation, MM = Missing Value Source: Averaged Metar Reports

Daily Weather History Graph

Daily Weather History Graph

Search for Another Location

Airport or City:

Trip Planner

Search our weather history database for the weather conditions in past years. The results will help you decide how hot, cold, wet, or windy it might be!

Date:

Astronomy

Dec. 16, 2013 Rise Set
Actual Time 5:18 AM AEST 6:40 PM AEST
Civil Twilight 4:54 AM AEST 7:05 PM AEST
Nautical Twilight 4:24 AM AEST 7:34 PM AEST
Astronomical Twilight 3:54 AM AEST 8:04 PM AEST
Moon 5:40 PM AEST (12/16) 4:14 AM AEST (12/16)
Length of Visible Light 14h 10m
Length of Day
13h 21m
Waxing Gibbous, 98% of the Moon is Illuminated
Dec 16
Waxing Gibbous
Dec 17
Full
Dec 25
Last Quarter
Jan 1
New
Jan 8
First Quarter

Hourly Weather History & Observations

Time (AEST) Temp. Heat Index Dew Point Humidity Pressure Visibility Wind Dir Wind Speed Gust Speed Precip Events Conditions
12:00 AM 78 °F - 69 °F 67% 29.92 in - ESE 21.9 mph - -  
12:00 AM 78.8 °F - 69.8 °F 74% 29.92 in - ESE 21.9 mph - N/A   Unknown
12:30 AM 78.8 °F - 69.8 °F 74% 29.92 in - ESE 18.4 mph - N/A   Unknown
1:00 AM 78.8 °F - 69.8 °F 74% 29.92 in - ESE 18.4 mph - N/A   Unknown
1:30 AM 78.8 °F - 69.8 °F 74% 29.89 in - ESE 18.4 mph - N/A   Unknown
2:00 AM 77.0 °F - 68.0 °F 74% 29.89 in - ESE 18.4 mph - N/A   Unknown
2:30 AM 77.0 °F - 69.8 °F 78% 29.89 in - ESE 18.4 mph - N/A   Unknown
3:00 AM 78 °F - 68 °F 63% 29.88 in - ESE 19.6 mph - -  
3:00 AM 77.0 °F - 68.0 °F 74% 29.89 in - ESE 19.6 mph - N/A   Unknown
3:30 AM 77.0 °F - 68.0 °F 74% 29.89 in - East 18.4 mph - N/A   Unknown
4:00 AM 77.0 °F - 69.8 °F 78% 29.89 in - ESE 19.6 mph - N/A   Unknown
4:30 AM 77.0 °F - 69.8 °F 78% 29.89 in - ESE 17.3 mph - N/A   Unknown
5:00 AM 77.0 °F - 69.8 °F 78% 29.89 in - ESE 18.4 mph - N/A   Unknown
5:30 AM 77.0 °F - 68.0 °F 74% 29.89 in - ESE 19.6 mph - N/A   Unknown
6:00 AM 78 °F - 69 °F 68% 29.91 in - ESE 19.6 mph - -  
6:00 AM 78.8 °F - 69.8 °F 74% 29.92 in - ESE 19.6 mph - N/A   Unknown
6:30 AM 78.8 °F - 68.0 °F 69% 29.92 in - ESE 18.4 mph - N/A   Unknown
7:00 AM 80.6 °F 83.9 °F 69.8 °F 70% 29.92 in - ESE 20.7 mph - N/A   Unknown
7:30 AM 80.6 °F 83.2 °F 68.0 °F 65% 29.92 in - ESE 19.6 mph - N/A   Unknown
8:00 AM 82.4 °F 86.3 °F 69.8 °F 66% 29.95 in - ESE 19.6 mph - N/A   Unknown
8:30 AM 80.6 °F 83.2 °F 68.0 °F 65% 29.95 in - ESE 23.0 mph - N/A   Unknown
9:00 AM 80 °F - 69 °F 60% 29.96 in - ESE 20.7 mph - -  
9:00 AM 80.6 °F 83.2 °F 68.0 °F 65% 29.95 in - ESE 20.7 mph - N/A   Unknown
9:30 AM 80.6 °F 83.2 °F 68.0 °F 65% 29.98 in - ESE 20.7 mph - N/A   Unknown
10:00 AM 82.4 °F 85.4 °F 68.0 °F 62% 29.98 in - ESE 23.0 mph - N/A   Unknown
10:30 AM 82.4 °F 84.6 °F 66.2 °F 58% 29.95 in - ESE 24.2 mph - N/A   Unknown
11:00 AM 82.4 °F 86.3 °F 69.8 °F 66% 29.98 in - ESE 24.2 mph - N/A   Unknown
11:30 AM 82.4 °F 86.3 °F 69.8 °F 66% 29.98 in - ESE 23.0 mph - N/A   Unknown
12:00 PM 83 °F - 68 °F 52% 29.96 in - ESE 23.0 mph - -  
12:00 PM 82.4 °F 85.4 °F 68.0 °F 62% 29.95 in - ESE 23.0 mph - N/A   Unknown
12:30 PM 82.4 °F 86.3 °F 69.8 °F 66% 29.95 in - ESE 21.9 mph - N/A   Unknown
1:00 PM 82.4 °F 86.3 °F 69.8 °F 66% 29.92 in - ESE 24.2 mph - N/A   Unknown
1:30 PM 82.4 °F 85.4 °F 68.0 °F 62% 29.92 in - ESE 23.0 mph - N/A   Unknown
2:00 PM 82.4 °F 86.3 °F 69.8 °F 66% 29.92 in - ESE 23.0 mph - N/A   Unknown
2:30 PM 82.4 °F 85.4 °F 68.0 °F 62% 29.92 in - ESE 24.2 mph - N/A   Unknown
3:00 PM 82 °F - 69 °F 55% 29.90 in - ESE 23.0 mph - -  
3:00 PM 82.4 °F 85.4 °F 68.0 °F 62% 29.89 in - ESE 23.0 mph - N/A   Unknown
3:30 PM 80.6 °F 83.2 °F 68.0 °F 65% 29.89 in - ESE 26.5 mph - N/A   Unknown
4:00 PM 82.4 °F 86.3 °F 69.8 °F 66% 29.89 in - ESE 23.0 mph - N/A   Unknown
4:30 PM 80.6 °F 83.2 °F 68.0 °F 65% 29.89 in - ESE 24.2 mph - N/A   Unknown
5:00 PM 80.6 °F 83.9 °F 69.8 °F 70% 29.89 in - ESE 21.9 mph - N/A   Unknown
5:30 PM 80.6 °F 83.9 °F 69.8 °F 70% 29.89 in - ESE 21.9 mph - N/A   Unknown
6:00 PM 79 °F - 68 °F 60% 29.91 in - ESE 23.0 mph - -  
6:00 PM 78.8 °F - 68.0 °F 69% 29.92 in - ESE 23.0 mph - N/A   Unknown
6:30 PM 78.8 °F - 69.8 °F 74% 29.92 in - ESE 19.6 mph - N/A   Unknown
7:00 PM 78.8 °F - 69.8 °F 74% 29.92 in - ESE 20.7 mph - N/A   Unknown
7:30 PM 78.8 °F - 68.0 °F 69% 29.92 in - ESE 21.9 mph - N/A   Unknown
8:00 PM 78.8 °F - 69.8 °F 74% 29.95 in - ESE 20.7 mph - N/A   Unknown
8:30 PM 78.8 °F - 69.8 °F 74% 29.95 in - ESE 21.9 mph - N/A   Unknown
9:00 PM 79 °F - 69 °F 63% 29.94 in - ESE 27.6 mph - -  
9:00 PM 78.8 °F - 68.0 °F 69% 29.95 in - ESE 27.6 mph - N/A   Unknown
9:30 PM 78.8 °F - 68.0 °F 69% 29.95 in - ESE 24.2 mph - N/A   Unknown
10:00 PM 78.8 °F - 69.8 °F 74% 29.95 in - ESE 24.2 mph - N/A   Unknown
10:30 PM 78.8 °F - 69.8 °F 74% 29.95 in - ESE 24.2 mph - N/A   Unknown
11:00 PM 78.8 °F - 69.8 °F 74% 29.95 in - ESE 23.0 mph - N/A   Unknown
11:30 PM 78.8 °F - 68.0 °F 69% 29.95 in - East 26.5 mph - N/A   Unknown